Location: Kile Knob Observatory
(38.6083°N, 79.4792°W)
Time: 07:27:57
(UTC-04:00)

Tiangong 2 - Pass Details

Date: 28 May 2019
Orbit: 376 x 388 km, 42.8° (Epoch: 25 June)

Event Time Altitude Azimuth Distance (km) Brightness Sun altitude
Rises 21:32:41 0° 290° (WNW) 2,235 6.5 -10.4°
Reaches altitude 10° 21:34:47 10° 296° (WNW) 1,382 5.3 -10.7°
Maximum altitude 21:37:50 52° 14° (NNE) 469 1.6 -11.2°
Enters shadow 21:40:21 14° 90° (E) 1,170 3.1 -11.6°
